TimeCDT,TemperatureF,Dew PointF,Humidity,Sea Level PressureIn,VisibilityMPH,Wind Direction,Wind SpeedMPH,Gust SpeedMPH,PrecipitationIn,Events,Conditions,WindDirDegrees,DateUTC
12:15 AM,35.6,26.6,70,30.30,10.0,East,5.8,-,N/A,,Overcast,80,2013-03-29 05:15:00
12:35 AM,37.4,26.6,65,30.30,10.0,East,5.8,-,N/A,,Overcast,90,2013-03-29 05:35:00
12:55 AM,37.4,26.6,65,30.30,10.0,ESE,4.6,-,N/A,,Overcast,110,2013-03-29 05:55:00
1:15 AM,35.6,26.6,70,30.30,10.0,East,3.5,-,N/A,,Overcast,90,2013-03-29 06:15:00
1:35 AM,35.6,28.4,75,30.30,10.0,Calm,Calm,-,N/A,,Overcast,0,2013-03-29 06:35:00
1:55 AM,35.6,26.6,70,30.30,10.0,East,3.5,-,N/A,,Overcast,90,2013-03-29 06:55:00
2:15 AM,35.6,26.6,70,30.30,10.0,Calm,Calm,-,N/A,,Overcast,0,2013-03-29 07:15:00
2:35 AM,35.6,26.6,70,30.30,10.0,Calm,Calm,-,N/A,,Scattered Clouds,0,2013-03-29 07:35:00
2:55 AM,33.8,28.4,81,30.30,10.0,Calm,Calm,-,N/A,,Clear,0,2013-03-29 07:55:00
3:15 AM,32.0,28.4,87,30.29,10.0,NNE,3.5,-,N/A,,Scattered Clouds,30,2013-03-29 08:15:00
3:35 AM,32.0,28.4,87,30.29,10.0,Calm,Calm,-,N/A,,Scattered Clouds,0,2013-03-29 08:35:00
3:55 AM,33.8,26.6,75,30.29,10.0,Calm,Calm,-,N/A,,Clear,0,2013-03-29 08:55:00
4:15 AM,33.8,26.6,75,30.29,10.0,NE,3.5,-,N/A,,Clear,50,2013-03-29 09:15:00
4:35 AM,33.8,26.6,75,30.28,10.0,NE,3.5,-,N/A,,Clear,50,2013-03-29 09:35:00
4:55 AM,33.8,26.6,75,30.28,10.0,NE,3.5,-,N/A,,Clear,50,2013-03-29 09:55:00
5:15 AM,33.8,26.6,75,30.28,10.0,ENE,3.5,-,N/A,,Clear,60,2013-03-29 10:15:00
5:35 AM,33.8,24.8,70,30.29,10.0,ENE,3.5,-,N/A,,Clear,60,2013-03-29 10:35:00
5:55 AM,32.0,26.6,80,30.29,10.0,Calm,Calm,-,N/A,,Clear,0,2013-03-29 10:55:00
6:15 AM,32.0,26.6,80,30.29,10.0,Calm,Calm,-,N/A,,Clear,0,2013-03-29 11:15:00
6:35 AM,32.0,26.6,80,30.29,10.0,East,3.5,-,N/A,,Clear,80,2013-03-29 11:35:00
6:55 AM,32.0,26.6,80,30.30,10.0,Calm,Calm,-,N/A,,Clear,0,2013-03-29 11:55:00
7:15 AM,32.0,26.6,80,30.30,10.0,NE,3.5,-,N/A,,Clear,50,2013-03-29 12:15:00
7:35 AM,32.0,26.6,80,30.31,10.0,NE,4.6,-,N/A,,Clear,50,2013-03-29 12:35:00
7:55 AM,33.8,26.6,75,30.31,10.0,ENE,5.8,-,N/A,,Clear,60,2013-03-29 12:55:00
8:15 AM,35.6,26.6,70,30.31,10.0,ENE,4.6,-,N/A,,Clear,70,2013-03-29 13:15:00
8:35 AM,37.4,28.4,70,30.31,10.0,ENE,4.6,-,N/A,,Clear,70,2013-03-29 13:35:00
8:55 AM,37.4,28.4,70,30.32,10.0,East,3.5,-,N/A,,Clear,80,2013-03-29 13:55:00
9:15 AM,39.2,28.4,65,30.32,10.0,East,3.5,-,N/A,,Clear,90,2013-03-29 14:15:00
9:35 AM,41.0,28.4,61,30.33,10.0,Calm,Calm,-,N/A,,Clear,0,2013-03-29 14:35:00
9:55 AM,41.0,28.4,61,30.32,10.0,East,3.5,-,N/A,,Clear,80,2013-03-29 14:55:00
10:15 AM,42.8,26.6,53,30.32,10.0,East,6.9,-,N/A,,Clear,80,2013-03-29 15:15:00
10:35 AM,42.8,26.6,53,30.31,10.0,East,6.9,-,N/A,,Clear,80,2013-03-29 15:35:00
10:55 AM,42.8,26.6,53,30.32,10.0,ENE,4.6,-,N/A,,Clear,70,2013-03-29 15:55:00
11:15 AM,44.6,26.6,49,30.32,10.0,East,5.8,-,N/A,,Clear,90,2013-03-29 16:15:00
11:35 AM,44.6,26.6,49,30.31,10.0,East,4.6,-,N/A,,Clear,90,2013-03-29 16:35:00
11:55 AM,44.6,26.6,49,30.31,10.0,East,4.6,-,N/A,,Clear,80,2013-03-29 16:55:00
12:15 PM,44.6,28.4,53,30.31,10.0,ESE,3.5,-,N/A,,Clear,120,2013-03-29 17:15:00
12:35 PM,46.4,26.6,46,30.31,10.0,Calm,Calm,-,N/A,,Clear,0,2013-03-29 17:35:00
12:55 PM,46.4,26.6,46,30.30,10.0,Calm,Calm,-,N/A,,Clear,0,2013-03-29 17:55:00
1:15 PM,46.4,28.4,50,30.30,10.0,ESE,3.5,-,N/A,,Clear,110,2013-03-29 18:15:00
1:35 PM,46.4,26.6,46,30.29,10.0,ENE,3.5,-,N/A,,Clear,70,2013-03-29 18:35:00
1:55 PM,46.4,26.6,46,30.29,10.0,Calm,Calm,-,N/A,,Clear,0,2013-03-29 18:55:00
2:15 PM,48.2,26.6,43,30.28,10.0,Calm,Calm,-,N/A,,Clear,0,2013-03-29 19:15:00
2:35 PM,48.2,28.4,46,30.27,10.0,Calm,Calm,-,N/A,,Clear,0,2013-03-29 19:35:00
2:55 PM,48.2,28.4,46,30.26,10.0,Calm,Calm,-,N/A,,Clear,0,2013-03-29 19:55:00
3:15 PM,50.0,28.4,43,30.26,10.0,North,3.5,-,N/A,,Clear,10,2013-03-29 20:15:00
3:35 PM,50.0,28.4,43,30.25,10.0,ENE,3.5,-,N/A,,Clear,60,2013-03-29 20:35:00
3:55 PM,50.0,28.4,43,30.24,10.0,Calm,Calm,-,N/A,,Clear,0,2013-03-29 20:55:00
4:35 PM,50.0,30.2,47,30.23,10.0,Calm,Calm,-,N/A,,Clear,0,2013-03-29 21:35:00
4:55 PM,50.0,26.6,40,30.23,10.0,Calm,Calm,-,N/A,,Clear,0,2013-03-29 21:55:00
5:15 PM,50.0,30.2,47,30.22,10.0,East,4.6,-,N/A,,Clear,100,2013-03-29 22:15:00
5:35 PM,50.0,28.4,43,30.22,10.0,Calm,Calm,-,N/A,,Clear,0,2013-03-29 22:35:00
5:55 PM,50.0,28.4,43,30.23,10.0,Calm,Calm,-,N/A,,Clear,0,2013-03-29 22:55:00
6:15 PM,50.0,30.2,47,30.23,10.0,East,3.5,-,N/A,,Scattered Clouds,90,2013-03-29 23:15:00
6:35 PM,50.0,32.0,50,30.22,10.0,East,5.8,-,N/A,,Mostly Cloudy,80,2013-03-29 23:35:00
6:55 PM,48.2,32.0,54,30.22,10.0,ENE,5.8,-,N/A,,Overcast,70,2013-03-29 23:55:00
7:15 PM,46.4,32.0,57,30.22,10.0,East,6.9,-,N/A,,Scattered Clouds,80,2013-03-30 00:15:00
7:35 PM,44.6,32.0,61,30.21,10.0,East,6.9,-,N/A,,Clear,90,2013-03-30 00:35:00
7:55 PM,44.6,32.0,61,30.21,10.0,East,6.9,-,N/A,,Clear,90,2013-03-30 00:55:00
8:15 PM,42.8,30.2,61,30.21,10.0,East,5.8,-,N/A,,Clear,100,2013-03-30 01:15:00
8:35 PM,42.8,30.2,61,30.21,10.0,East,5.8,-,N/A,,Clear,80,2013-03-30 01:35:00
8:55 PM,41.0,30.2,65,30.21,10.0,East,8.1,-,N/A,,Clear,90,2013-03-30 01:55:00
9:15 PM,41.0,30.2,65,30.21,10.0,ESE,6.9,-,N/A,,Clear,110,2013-03-30 02:15:00
9:35 PM,41.0,30.2,65,30.22,10.0,ESE,8.1,-,N/A,,Clear,110,2013-03-30 02:35:00
9:55 PM,41.0,30.2,65,30.22,10.0,ESE,9.2,-,N/A,,Clear,110,2013-03-30 02:55:00
10:15 PM,37.4,30.2,75,30.22,10.0,East,8.1,-,N/A,,Scattered Clouds,100,2013-03-30 03:15:00
10:35 PM,37.4,28.4,70,30.22,10.0,East,8.1,-,N/A,,Scattered Clouds,100,2013-03-30 03:35:00
10:55 PM,37.4,28.4,70,30.21,10.0,East,9.2,-,N/A,,Scattered Clouds,100,2013-03-30 03:55:00
11:15 PM,37.4,28.4,70,30.21,10.0,ESE,6.9,-,N/A,,Mostly Cloudy,120,2013-03-30 04:15:00
11:35 PM,37.4,28.4,70,30.21,10.0,ESE,8.1,-,N/A,,Mostly Cloudy,120,2013-03-30 04:35:00
11:55 PM,37.4,28.4,70,30.21,10.0,ESE,9.2,-,N/A,,Mostly Cloudy,110,2013-03-30 04:55:00